Weather History for CWJR - October, 2012

Change the Weather History Date:

Friday, October 5, 2012

  Actual Average Record
Temperature  
Mean Temperature 46 °F -  
Max Temperature 60 °F - - ()
Min Temperature 31 °F - - ()
Degree Days  
Heating Degree Days 20    
Moisture  
Dew Point 24 °F    
Average Humidity 45    
Maximum Humidity 68    
Minimum Humidity 14    
Precipitation  
Precipitation 0.00 in - - ()
Sea Level Pressure  
Sea Level Pressure 30.44 in    
Wind  
Wind Speed 3 mph ()    
Max Wind Speed 9 mph    
Max Gust Speed -    
T = Trace of Precipitation, MM = Missing Value Source: Averaged Metar Reports

Daily Weather History Graph

Daily Weather History Graph

Search for Another Location

Airport or City:

Trip Planner

Search our weather history database for the weather conditions in past years. The results will help you decide how hot, cold, wet, or windy it might be!

Date:

Astronomy

Oct. 05, 2012 Rise Set
Actual Time 6:52 AM MST 6:15 PM MST
Civil Twilight 6:20 AM MST 6:46 PM MST
Nautical Twilight 5:44 AM MST 7:23 PM MST
Astronomical Twilight 5:06 AM MST 8:00 PM MST
Moon 9:17 PM MST (10/5) 12:28 PM MST (10/5)
Length of Visible Light 12h 25m
Length of Day
11h 22m
Waning Gibbous, 73% of the Moon is Illuminated
Oct 5
Waning Gibbous
Oct 8
Last Quarter
Oct 15
New
Oct 21
First Quarter
Oct 29
Full

Hourly Weather History & Observations

Time (MST) Temp. Windchill Dew Point Humidity Pressure Visibility Wind Dir Wind Speed Gust Speed Precip Events Conditions
12:00 AM 33.8 °F 30.8 °F 21.7 °F 61% 30.49 in - NE 3.5 mph - N/A   Unknown
1:00 AM 32.9 °F - 21.7 °F 64% 30.51 in - NNE 2.3 mph - N/A   Unknown
2:00 AM 34.0 °F 31.0 °F 21.7 °F 61% 30.52 in - ENE 3.5 mph - N/A   Unknown
3:00 AM 37.2 °F - 26.1 °F 64% 30.53 in - West 1.2 mph - N/A   Unknown
4:00 AM 42.4 °F - 22.5 °F 45% 30.51 in - NE 2.3 mph - N/A   Unknown
5:00 AM 46 °F - 25 °F 30% 30.51 in - SW 2.3 mph - -  
5:00 AM 45.7 °F - 24.8 °F 44% 30.51 in - SW 2.3 mph - N/A   Unknown
6:00 AM 49.8 °F - 24.3 °F 37% 30.48 in - SW 1.2 mph - N/A   Unknown
7:00 AM 52.0 °F - 24.3 °F 34% 30.45 in - NW 1.2 mph - N/A   Unknown
8:00 AM 56.7 °F - 22.8 °F 27% 30.42 in - SE 2.3 mph - N/A   Unknown
9:00 AM 58.1 °F - 23.0 °F 26% 30.40 in - West 2.3 mph - N/A   Unknown
10:00 AM 59.7 °F - 22.6 °F 24% 30.38 in - SW 3.5 mph - N/A   Unknown
11:00 AM 59 °F - 23 °F 14% 30.37 in - WSW 3.5 mph - -  
11:00 AM 59.4 °F - 23.4 °F 25% 30.37 in - WSW 3.5 mph - N/A   Unknown
12:00 PM 51.8 °F - 22.8 °F 32% 30.38 in - West 1.2 mph - N/A   Unknown
1:00 PM 48.2 °F - 25.2 °F 41% 30.39 in - North 3.5 mph - N/A   Unknown
2:00 PM 42.8 °F 39.3 °F 25.7 °F 51% 30.40 in - ENE 5.8 mph - N/A   Unknown
3:00 PM 44.4 °F 42.0 °F 23.7 °F 44% 30.40 in - ENE 4.6 mph - N/A   Unknown
4:00 PM 42.1 °F - 23.9 °F 49% 30.41 in - Calm Calm - N/A   Unknown
5:00 PM 42 °F - 24 °F 35% 30.40 in - ENE 3.5 mph - -  
5:00 PM 41.9 °F 40.0 °F 23.7 °F 49% 30.40 in - ENE 3.5 mph - N/A   Unknown
6:00 PM 40.5 °F 38.4 °F 24.1 °F 52% 30.41 in - NE 3.5 mph - N/A   Unknown
7:00 PM 39.7 °F 33.7 °F 23.4 °F 52% 30.41 in - ENE 9.2 mph - N/A   Unknown
8:00 PM 38.5 °F 35.0 °F 23.4 °F 55% 30.43 in - ENE 4.6 mph - N/A   Unknown
9:00 PM 38.1 °F 32.9 °F 23.0 °F 55% 30.43 in - NE 6.9 mph - N/A   Unknown
10:00 PM 37.4 °F 31.4 °F 23.2 °F 57% 30.42 in - ENE 8.1 mph - N/A   Unknown
11:00 PM 34 °F - 25 °F 58% 30.45 in - North 2.3 mph - -  
11:00 PM 34.3 °F - 24.6 °F 68% 30.45 in - North 2.3 mph - N/A   Unknown